Location: Newark
(34.1333°N, 7.9667°W)
Time: 13:52:19
(UTC+00:00)

deb Explorer IX - Visible Passes

Search period start: 22 June 2021 00:00
Search period end: 02 July 2021 00:00
Orbit: 542 x 1096 km, 38.8° (Epoch: 21 June)

Date Brightness Start Highest point End Pass type
(mag) Time Alt. Az. Time Alt. Az. Time Alt. Az.
22 Jun ? 04:28:49 11° SSW 04:32:42 34° SSE 04:36:31 10° E visible
23 Jun ? 04:06:06 18° SSW 04:08:54 35° SSE 04:12:47 10° E visible
24 Jun ? 03:43:19 26° SSW 03:45:04 36° SSE 03:49:04 10° E visible
25 Jun ? 03:20:29 34° S 03:21:13 37° SSE 03:25:21 10° E visible
26 Jun ? 02:57:36 37° SE 02:57:36 37° SE 03:01:38 10° E visible
26 Jun ? 04:39:17 10° W 04:44:04 68° NNW 04:48:17 10° ENE visible
27 Jun ? 02:34:40 34° ESE 02:34:40 34° ESE 02:37:54 10° E visible
27 Jun ? 04:15:53 13° W 04:20:14 69° NNW 04:24:33 10° ENE visible
28 Jun ? 02:11:42 27° ESE 02:11:42 27° ESE 02:14:10 10° E visible
28 Jun ? 03:52:55 20° W 03:56:23 69° NNW 04:00:49 10° ENE visible
29 Jun ? 01:48:41 21° E 01:48:41 21° E 01:50:25 10° E visible
29 Jun ? 03:29:54 28° W 03:32:31 70° NNW 03:37:05 10° ENE visible
30 Jun ? 01:25:38 16° E 01:25:38 16° E 01:26:39 10° E visible
30 Jun ? 03:06:51 40° W 03:08:38 70° NNW 03:13:19 10° ENE visible
30 Jun ? 04:51:06 10° WNW 04:55:48 46° N 04:59:59 10° ENE visible
01 Jul ? 01:02:33 12° E 01:02:33 12° E 01:02:53 10° E visible
01 Jul ? 02:43:46 56° WNW 02:44:45 71° NNW 02:49:35 10° ENE visible
01 Jul ? 04:27:04 10° WNW 04:31:57 47° N 04:36:13 10° ENE visible
